Terug naar catalogus

STARLINK-32663

ActiefCommunicatieVLEO
NORAD 62197·PAYLOAD·🇺🇸 United States

Gelanceerd Dec 4, 2024 vanaf Cape Canaveral Space Force Station

Loading…

Volgende Passages (komende 24 uur)

TLE

VersSource: CelesTrak SupGP

Epoch: Sep 14, 2026, 21:02 UTC

1 62197C 24229F   26257.87687500  .00001895  00000+0  68625-4 0  2577
2 62197  43.0003 282.6348 0001448 265.5485   0.1661 15.27574394    14

Volg STARLINK-32663 in realtime met AllMySat

Download on the App Store